Location: Eschertshofen
(49.3064°N, 11.5756°E)
Time: 11:50:12
(UTC+00:00)

Iridium 26 - Pass Details

Date: 03 October 2021
Orbit: 772 x 775 km, 86.4° (Epoch: 15 October)

Event Time Altitude Azimuth Distance (km) Brightness Sun altitude
Exits shadow 21:20:18 17° 301° (WNW) 1,872 8.0 -40.1°
Drops below altitude 10° 21:23:02 10° 333° (NNW) 2,331 8.7 -40.3°
Sets 21:26:11 0° 352° (N) 3,263 9.5 -40.6°
